Theta_e
322 322 323 323 323 323 323 323 322 317 316 320 322 323 325 324 324 326 329 330 330 328 328 329 329 328 325 324 323 321 318 316 317 318 321 322 322 322 318 315 319 321 320 321 321 320 320 320 320 320 320 320 319 319 319 319 318 318 318 318 317 317 317 317 317 317 317 317 317 317 317 317 316 316 316 316 315 315 315 315 315 315 315 315 315
321 321 322 321 322 323 324 324 323 320 317 318 322 324 324 323 325 328 329 330 330 327 326 327 329 329 326 324 322 320 318 316 314 313 314 317 319 322 319 315 317 320 321 321 321 321 320 321 320 320 319 319 319 319 319 318 318 318 317 317 317 317 317 317 317 317 317 317 317 317 317 316 316 316 315 315 315 315 315 314 314 314 314 314 314
321 321 321 320 321 323 324 325 324 323 321 318 319 321 322 323 326 328 329 330 329 326 324 326 328 328 327 324 323 320 318 316 314 312 312 314 316 319 320 317 316 316 320 321 321 321 320 320 320 320 319 319 319 319 319 318 318 318 317 316 317 317 317 317 317 317 317 317 317 317 316 316 316 316 316 315 315 315 315 314 314 314 313 314 314
320 320 320 320 321 322 323 324 325 325 324 322 321 320 321 324 327 328 329 329 328 325 324 325 327 328 327 325 323 321 318 316 315 312 312 313 314 316 317 317 315 313 316 318 319 320 319 319 319 319 320 319 319 319 319 319 318 317 317 317 317 317 317 317 317 317 316 316 316 316 316 316 316 316 315 315 315 315 315 314 313 313 313 313 313
320 320 320 320 320 321 322 324 325 326 326 325 325 324 323 324 325 327 330 328 326 325 324 325 327 328 327 325 323 322 319 316 316 313 313 312 312 313 313 313 313 312 314 316 316 316 316 318 318 318 320 320 320 320 319 319 318 318 317 317 317 317 317 317 317 317 317 316 316 316 316 316 316 315 315 315 314 314 314 313 312 312 313 312 312
319 320 320 320 320 321 323 323 325 326 326 327 327 327 326 325 326 329 329 327 326 325 324 325 326 327 327 326 324 324 321 318 317 315 313 313 312 311 311 311 310 308 311 316 318 317 315 316 316 315 317 319 319 319 319 319 319 318 317 317 316 316 317 317 317 317 317 317 316 316 316 316 315 315 315 314 314 314 314 313 312 312 312 311 312
317 319 320 321 320 321 323 323 325 326 327 328 328 329 328 328 328 329 328 327 326 325 324 325 326 327 327 326 325 324 323 321 319 317 313 313 312 311 311 310 309 307 307 311 316 319 318 317 315 312 313 317 317 317 317 317 318 318 316 316 316 316 317 317 317 317 316 316 316 316 315 315 314 314 314 314 313 313 313 314 313 311 310 310 310
317 319 320 321 321 322 323 323 323 325 326 328 328 328 329 329 329 329 328 327 327 325 324 324 325 327 326 326 325 324 324 323 321 319 315 313 313 312 311 311 309 307 306 306 307 313 319 319 318 315 312 313 314 315 317 317 317 316 315 316 317 316 317 317 317 317 316 316 315 315 314 313 312 313 314 314 313 313 313 314 312 310 308 308 308
318 320 320 321 321 322 322 323 323 324 325 326 327 328 329 329 329 328 328 327 327 325 324 324 325 326 326 326 326 325 324 324 323 321 318 315 313 312 312 312 310 307 307 307 304 305 314 319 320 318 314 311 310 311 315 317 318 315 313 315 318 317 316 315 316 316 316 316 315 313 312 311 310 312 314 314 314 313 312 312 311 309 309 308 309
318 320 320 321 321 321 322 322 323 325 325 326 326 327 328 328 328 328 327 327 327 325 324 324 324 325 326 325 325 325 324 324 323 322 320 317 315 313 312 312 312 309 308 308 307 303 307 314 319 320 318 314 312 309 310 315 316 316 314 314 315 317 316 313 312 313 314 314 313 313 312 311 311 312 314 315 314 314 313 311 310 310 311 311 312
316 318 320 320 320 320 321 322 323 325 326 326 326 327 327 327 328 327 327 328 327 325 325 324 324 324 324 325 325 325 324 324 324 323 322 320 317 314 313 312 312 312 310 309 309 307 305 308 316 320 319 317 316 313 310 311 311 312 315 315 313 314 316 313 308 306 308 310 311 312 312 311 312 312 313 313 313 314 314 313 311 311 312 313 314
315 316 318 320 320 320 320 321 323 325 325 325 326 326 327 327 327 327 327 328 327 325 326 324 323 324 324 324 325 325 324 324 324 324 323 322 320 316 314 313 313 313 312 311 310 310 307 306 309 315 316 314 316 317 315 313 311 309 311 314 313 312 314 316 312 305 302 304 307 309 309 309 311 313 313 313 312 313 315 315 313 313 314 314 315
314 314 317 319 320 320 320 320 322 324 325 325 325 326 326 326 327 328 327 327 327 326 326 325 323 323 324 324 324 324 324 324 324 324 323 323 322 320 316 314 313 314 314 313 312 311 311 308 307 309 310 309 310 315 317 316 315 312 309 310 311 310 311 316 317 310 302 301 303 304 305 306 308 311 314 313 312 313 314 315 315 315 315 315 315
314 313 315 317 317 319 319 320 321 324 325 324 325 325 325 325 326 327 327 327 328 327 326 325 324 324 324 324 325 325 323 323 324 323 323 323 322 321 319 315 314 315 315 314 313 312 312 311 310 309 309 308 306 307 312 314 315 314 312 311 310 310 308 311 316 315 307 301 301 302 302 303 304 309 312 313 313 313 313 314 315 316 316 316 316
314 314 315 315 315 317 319 320 321 323 324 323 324 324 324 325 326 327 327 327 328 327 326 325 324 325 325 326 328 327 326 324 323 323 322 322 322 321 320 317 315 315 315 315 314 313 312 312 312 311 310 310 307 303 304 306 308 311 312 311 311 311 309 309 312 315 313 306 302 303 303 302 302 306 309 311 312 312 312 313 314 315 316 316 316
315 315 315 315 315 316 317 319 320 321 322 322 323 323 323 324 325 327 327 327 327 327 327 327 325 326 326 326 325 326 330 327 323 324 323 322 321 321 321 320 318 317 316 317 316 314 313 313 312 313 312 311 310 306 303 303 305 306 308 309 309 309 310 309 309 314 317 312 306 304 304 304 303 305 308 310 311 311 312 313 314 314 315 316 316
314 315 315 315 315 315 316 318 319 320 321 322 322 322 322 322 323 325 326 326 326 326 327 327 327 326 326 327 325 328 332 326 323 325 324 323 323 322 321 321 320 319 319 318 318 316 315 314 313 313 313 313 312 310 307 306 306 306 306 306 307 308 309 310 311 314 317 316 311 306 305 305 305 305 306 308 310 311 312 314 315 316 316 316 316
314 315 315 315 315 315 315 317 319 320 320 321 321 320 321 321 322 323 323 324 325 326 326 326 327 327 326 327 327 328 329 325 325 329 325 324 324 324 323 323 322 322 321 320 319 318 317 316 314 313 312 313 313 313 311 309 308 307 307 307 306 307 308 310 312 314 316 318 316 311 307 306 306 306 306 307 308 309 311 312 314 315 316 317 317
316 316 315 315 316 315 315 316 319 320 320 320 320 320 320 320 321 322 322 323 324 325 326 325 326 326 326 327 326 326 326 325 327 329 328 327 325 324 324 323 323 323 322 321 320 320 319 318 317 315 313 313 312 313 313 312 310 309 309 309 308 307 307 308 310 312 314 317 318 316 312 310 308 308 307 307 307 308 308 309 310 311 313 315 315
318 318 315 314 315 315 316 317 318 318 318 319 320 321 320 320 321 322 322 323 324 324 325 324 324 324 325 326 326 326 325 325 326 326 328 329 326 324 325 324 323 322 321 321 320 320 319 319 318 317 315 314 313 313 313 313 312 311 310 310 310 309 308 308 308 309 311 313 316 318 318 316 314 313 313 312 311 311 309 308 307 308 309 311 311
319 319 317 315 315 315 316 316 317 317 317 317 318 321 322 321 321 322 322 322 323 323 323 323 323 323 323 323 325 326 325 325 325 325 325 327 328 327 325 321 321 321 320 319 319 319 319 319 318 318 317 315 314 313 313 313 313 312 312 311 310 310 310 309 308 308 309 310 312 315 318 319 319 319 318 317 316 315 314 312 309 308 307 308 308
319 319 318 317 316 316 315 316 317 317 316 314 315 318 322 322 321 321 321 321 322 322 322 322 322 323 323 323 324 325 325 325 325 325 325 324 325 326 322 319 320 320 320 319 319 319 318 318 318 317 317 316 315 315 314 314 314 313 313 312 311 311 310 310 310 309 308 308 309 310 313 317 320 321 321 320 318 317 317 315 312 311 309 308 308
318 319 319 319 318 317 316 315 316 315 314 314 314 317 320 322 322 320 320 320 320 321 321 322 322 323 323 324 324 324 325 325 325 325 325 324 324 324 321 319 319 319 319 319 319 319 318 317 317 317 317 317 316 316 315 315 314 314 314 313 312 312 311 311 310 310 310 309 309 309 309 311 315 318 320 321 320 318 316 314 312 313 312 311 310
318 319 319 319 319 318 317 315 315 314 314 314 315 317 320 321 321 319 319 319 319 320 321 321 321 322 322 323 324 324 324 324 325 325 325 324 324 322 320 319 319 318 318 319 318 318 318 318 318 317 318 317 317 316 316 315 315 314 314 313 313 313 312 312 311 311 311 310 310 309 309 309 310 312 315 318 319 318 316 313 311 311 311 310 309
319 319 320 320 319 319 319 318 316 315 314 314 315 316 319 320 320 319 318 318 319 320 320 320 321 321 321 322 323 324 324 324 325 324 323 322 321 320 319 318 318 318 318 319 318 318 318 318 318 318 317 317 317 317 316 315 315 314 314 314 313 313 312 312 312 311 311 311 311 310 310 310 310 310 311 312 314 314 315 314 312 312 311 310 308
319 320 320 319 319 319 319 319 319 317 315 314 314 315 317 319 318 318 317 316 317 319 320 321 321 321 321 321 322 322 322 323 323 322 321 320 320 319 319 319 317 316 317 318 318 318 318 318 318 318 317 317 316 316 315 315 315 314 314 313 313 313 312 312 312 312 311 311 311 311 310 310 310 310 310 310 311 312 312 313 313 313 313 312 311
320 320 320 320 319 319 319 319 320 319 318 315 313 313 314 316 316 316 316 316 316 317 319 320 321 321 320 320 321 321 321 321 321 320 320 320 320 319 319 320 321 318 316 317 317 316 317 318 318 317 317 317 316 316 315 314 314 313 313 313 312 312 311 311 311 311 310 310 311 311 311 311 310 310 310 310 310 310 311 312 313 313 314 314 314
321 320 320 320 320 320 320 320 319 320 320 318 315 314 313 314 314 315 315 315 315 315 317 318 319 320 320 320 320 321 321 320 320 320 320 320 320 320 319 319 321 321 319 319 318 316 316 316 316 316 316 316 316 315 314 314 313 313 312 312 311 311 311 311 311 310 310 309 309 310 310 310 311 311 310 310 310 311 312 312 313 313 313 314 314
322 321 320 320 320 320 320 320 320 320 320 320 318 316 315 315 315 315 315 315 315 315 315 316 318 318 319 319 319 320 320 320 320 320 320 320 320 320 320 319 319 320 321 322 320 317 316 316 315 315 315 315 314 314 314 314 313 313 312 312 312 312 312 311 310 309 309 308 308 309 309 310 311 311 311 312 312 313 314 314 314 314 314 314 315
324 322 321 321 320 320 320 320 320 320 320 320 320 319 317 316 316 316 316 315 315 314 313 313 314 316 318 318 318 318 318 319 319 319 319 320 320 320 320 320 319 319 318 320 320 317 316 316 316 315 315 315 314 315 315 314 314 313 313 313 313 312 310 308 308 308 308 308 308 308 308 309 310 310 311 313 315 316 315 315 315 315 315 315 316
324 321 321 321 321 321 321 321 321 321 321 320 320 320 319 318 318 318 318 317 316 315 313 312 311 313 314 315 315 316 315 315 315 316 317 318 318 318 318 318 318 318 317 317 318 317 315 315 315 315 315 314 314 314 313 313 312 312 312 312 311 310 309 308 308 308 308 308 309 309 309 309 309 309 310 312 315 318 319 319 318 318 318 318 317
323 322 322 321 321 321 321 321 321 321 321 321 321 321 321 320 319 318 318 318 318 318 316 314 312 311 311 312 312 312 313 313 312 312 313 314 315 315 315 316 316 317 316 316 316 316 313 312 313 312 312 312 312 312 312 311 311 311 311 310 310 310 310 310 309 309 309 309 309 309 309 309 309 310 310 310 312 314 317 320 321 321 320 320 319
324 324 322 322 322 322 322 322 322 322 322 321 321 321 321 321 320 319 318 318 318 318 318 318 317 314 312 312 313 314 315 316 315 313 311 311 312 311 312 312 313 313 314 314 315 314 312 310 311 311 311 311 312 312 312 312 312 312 311 311 311 311 310 310 310 309 309 310 310 309 309 309 310 310 310 310 310 310 311 313 316 317 318 319 320
328 327 325 324 324 324 323 322 321 322 322 322 322 322 321 321 321 320 319 318 318 318 317 318 319 318 316 315 316 317 318 318 318 316 314 313 312 312 312 312 311 311 312 312 313 313 312 312 311 312 312 312 312 312 312 312 312 312 312 312 312 312 312 312 311 310 309 309 309 309 309 309 309 310 310 310 311 311 311 311 312 312 313 315 318
330 329 328 327 327 325 325 324 324 324 324 323 322 322 321 321 321 320 320 320 320 320 319 318 319 320 320 319 318 318 317 317 318 318 318 317 316 315 314 313 313 312 311 312 312 312 312 312 312 312 312 312 312 312 312 312 312 312 312 312 312 312 312 313 313 313 312 312 311 311 310 310 309 309 309 310 310 310 311 312 313 314 313 312 312
330 330 329 329 328 327 326 326 326 326 325 324 323 322 322 322 321 320 320 320 320 320 320 320 320 321 320 320 320 320 319 317 317 318 318 318 318 317 316 316 317 316 314 312 312 312 312 312 312 312 312 312 313 313 313 312 312 312 312 313 313 314 314 314 314 316 317 317 317 316 315 314 312 311 310 310 310 311 311 312 314 316 316 316 314
330 330 330 329 329 328 328 328 327 327 326 324 323 323 323 323 322 322 322 322 321 321 321 321 321 320 319 319 319 320 320 319 318 317 316 316 317 317 318 319 319 319 318 317 314 312 312 312 312 313 313 313 314 316 316 314 314 315 315 315 316 317 317 318 317 318 318 318 318 318 318 318 317 316 315 314 313 313 313 313 314 315 317 318 317
330 330 330 330 330 329 329 328 328 328 326 325 324 324 325 325 325 325 325 324 324 323 322 321 321 321 320 319 318 319 319 318 317 317 316 315 316 318 320 321 318 317 318 320 318 313 311 311 312 313 315 315 314 316 319 316 315 317 318 318 319 319 319 319 319 319 319 318 319 319 319 319 319 319 320 319 317 316 315 315 315 315 316 316 315
330 329 329 329 329 329 329 329 328 328 327 326 326 326 326 326 326 326 325 325 325 324 323 322 322 322 321 320 319 320 320 320 319 318 317 317 318 320 321 321 319 317 317 318 318 314 312 311 312 313 315 315 314 316 319 317 314 315 317 317 319 320 320 318 318 319 319 319 319 320 320 320 320 320 319 319 319 318 317 317 316 316 316 316 316
329 329 329 329 328 328 328 328 328 327 327 327 326 326 326 326 326 325 325 325 325 324 324 323 323 322 322 321 321 321 321 321 320 320 320 320 321 322 321 321 320 318 317 316 317 316 314 313 312 313 313 314 315 317 318 316 313 314 316 315 315 317 319 318 318 319 319 318 319 319 320 320 320 319 319 319 319 319 318 318 318 318 318 319 319
328 328 328 328 328 327 328 328 327 327 326 326 325 325 325 325 325 325 325 325 325 324 324 323 323 322 322 322 322 321 321 321 321 321 321 321 322 322 322 321 321 319 318 317 317 316 315 313 313 314 315 315 316 317 317 316 315 315 316 315 313 315 317 318 318 318 318 318 319 319 320 320 320 319 319 319 319 319 319 319 319 319 319 319 319
327 327 327 327 327 327 327 326 326 326 325 325 325 324 324 324 324 324 325 325 324 324 323 323 323 323 323 322 322 322 322 322 322 321 321 322 322 322 322 322 321 320 319 318 318 317 316 315 316 317 317 317 318 317 316 317 317 316 316 315 315 315 316 316 318 318 318 318 319 319 319 319 319 319 319 319 319 319 319 319 318 318 318 317 317
327 326 326 326 325 325 325 324 324 324 323 323 322 321 321 321 321 321 323 323 322 322 322 322 322 322 322 321 321 321 321 321 321 321 321 321 322 322 322 322 321 321 320 319 319 318 317 318 318 318 318 317 317 317 317 317 317 316 316 317 316 317 317 317 317 318 318 318 318 318 318 318 318 318 317 317 317 317 317 317 316 316 315 315 314
325 325 324 324 323 321 320 319 318 317 316 316 315 314 314 314 315 316 318 319 319 320 320 321 321 321 321 320 320 321 321 321 321 320 321 321 321 321 321 321 320 319 319 318 318 318 318 318 317 317 317 317 316 316 316 315 315 315 315 316 316 316 317 317 317 317 317 317 317 317 316 316 316 316 315 314 313 313 312 312 312 312 311 311 311
322 321 320 319 317 314 313 312 311 311 310 310 310 310 310 311 312 313 314 316 318 320 320 321 320 320 320 320 320 320 320 319 319 319 319 318 318 318 318 318 317 317 317 317 317 317 317 317 316 316 315 315 314 314 313 312 312 312 312 313 314 314 314 315 315 315 315 314 315 315 314 312 312 313 312 310 310 309 309 309 309 309 308 308 309
318 315 313 311 310 309 308 308 308 308 309 309 309 310 310 311 312 313 313 316 318 319 318 318 318 318 318 318 317 317 316 315 314 313 313 312 312 313 313 313 314 314 315 315 315 315 315 315 314 314 314 313 312 311 311 310 309 309 310 311 311 312 312 313 313 312 312 311 312 313 311 309 309 310 309 308 308 307 307 307 307 308 308 308 308
312 309 308 307 307 306 306 306 307 308 308 309 309 309 310 311 312 313 315 316 317 316 316 315 315 315 314 314 313 311 310 309 309 309 309 309 310 311 312 312 312 312 313 313 312 312 312 313 312 312 311 310 309 309 308 308 308 308 309 310 310 310 311 312 311 311 310 309 310 311 309 307 308 308 307 307 307 306 306 306 306 307 307 307 307
307 307 307 307 306 306 305 305 306 307 308 308 308 309 310 311 311 312 313 314 314 314 314 313 313 312 310 309 308 308 308 307 308 308 308 309 309 310 310 310 310 310 310 311 311 311 311 310 310 309 308 308 307 307 308 308 308 308 308 309 309 309 310 311 310 309 308 308 308 308 307 305 306 306 306 305 305 305 305 305 306 306 306 306 307
307 307 308 307 307 306 306 305 305 306 307 307 307 308 309 310 310 311 311 311 312 312 312 310 310 308 307 307 307 307 307 307 307 307 308 308 308 309 309 309 310 310 309 309 310 309 308 307 307 306 306 307 307 306 307 307 307 307 308 308 307 308 309 310 309 307 306 306 307 307 306 305 305 305 305 305 304 304 304 304 304 305 306 306 306
307 308 308 308 307 307 307 306 305 305 305 306 306 307 308 309 309 310 310 310 310 310 308 307 306 306 306 306 306 306 306 306 306 307 307 307 307 308 308 308 308 308 308 308 308 307 307 306 306 306 305 305 305 305 305 305 306 307 307 307 306 306 307 308 307 306 305 305 305 305 305 304 304 305 305 304 303 303 302 302 303 304 306 306 306
309 308 308 308 308 308 308 307 306 305 305 305 305 305 307 308 308 309 309 309 308 307 306 305 305 305 305 305 305 305 305 305 305 305 306 306 306 307 306 306 306 306 306 306 306 306 306 305 305 305 304 304 304 304 304 304 305 305 306 306 306 306 306 306 306 306 307 306 305 304 305 304 304 304 304 305 305 304 302 301 302 303 304 304 305
Wind_Speed
5 5 4 4 4 4 4 5 6 9 14 15 14 14 15 12 7 4 2 1 4 7 5 5 6 5 4 4 4 5 5 5 4 4 3 4 5 4 4 6 8 9 9 10 9 10 10 9 10 9 9 9 10 10 10 10 10 10 10 11 11 12 12 13 13 13 13 12 12 12 12 12 12 12 12 12 12 11 11 11 11 11 11 11 11
5 4 4 3 4 5 5 6 6 7 11 14 14 14 14 11 6 4 2 2 6 8 7 7 8 8 6 5 5 4 4 4 4 4 3 3 4 4 3 5 7 8 9 9 9 10 10 10 10 10 9 9 10 10 10 10 10 9 10 11 11 11 12 12 12 12 12 11 11 11 11 11 11 11 11 11 11 10 10 10 10 10 10 11 10
6 5 4 3 4 5 6 7 7 7 9 12 13 13 12 10 7 4 2 3 6 6 6 8 9 10 8 6 6 5 5 4 3 4 4 3 3 3 3 4 5 7 8 8 8 9 9 10 10 10 10 10 10 10 10 9 10 9 9 11 11 11 12 11 11 11 11 11 11 11 11 11 10 10 10 10 10 10 10 10 9 9 9 10 10
7 6 6 4 4 5 6 7 7 8 9 10 11 12 11 10 7 4 2 3 4 4 5 7 10 11 9 7 7 6 6 5 3 3 4 4 3 3 2 2 3 4 6 7 7 8 8 9 10 10 10 10 10 10 10 10 10 10 10 11 11 11 11 11 10 10 10 10 10 10 10 10 10 9 9 9 9 9 9 8 8 8 9 9 9
7 7 6 6 6 6 7 6 7 7 8 9 10 11 11 10 8 6 3 2 3 4 4 7 10 12 11 9 8 6 6 6 4 2 2 3 3 3 3 2 2 2 3 4 5 6 7 7 8 9 10 9 10 10 10 10 10 10 10 10 11 11 11 10 9 9 8 9 9 9 9 9 9 8 8 8 8 8 8 7 8 8 8 8 7
7 7 7 7 7 8 8 6 6 6 7 8 9 10 10 9 7 6 4 2 3 5 6 9 11 13 13 11 9 7 7 7 5 4 3 1 2 2 3 3 3 1 1 3 3 3 4 6 7 7 9 9 9 9 9 9 9 9 9 9 9 10 10 9 9 8 8 8 8 8 7 8 8 7 7 7 7 7 7 7 7 7 7 7 6
8 8 8 7 7 8 7 6 6 6 7 8 8 9 9 9 7 5 4 3 4 6 8 10 12 14 14 13 11 8 8 8 8 7 5 3 0 1 2 2 2 2 1 2 3 3 3 3 4 5 6 8 8 8 8 8 8 8 8 8 8 8 8 8 7 7 7 7 7 7 6 6 6 6 7 7 7 7 6 6 6 6 6 6 6
7 9 8 7 7 7 8 7 6 7 8 8 9 9 9 9 7 5 4 4 5 7 9 11 13 14 15 14 13 11 9 9 10 9 8 5 3 2 0 1 1 1 1 0 1 3 3 3 3 2 3 6 6 7 7 7 7 7 7 8 7 7 8 7 7 6 6 6 6 6 6 5 5 6 6 6 6 6 6 6 5 5 6 7 7
6 8 9 9 8 7 8 7 6 6 8 8 9 9 9 8 7 5 4 4 6 7 8 11 14 15 15 15 14 13 11 11 11 11 11 9 6 4 3 1 0 1 1 1 1 2 4 4 4 3 3 3 4 6 7 7 7 6 7 8 8 7 7 7 8 7 7 6 6 6 5 5 5 6 6 6 6 6 6 6 6 6 6 7 6
6 7 9 9 8 6 6 7 6 6 8 9 9 8 8 7 6 5 4 4 6 8 8 10 13 14 15 15 15 14 12 12 12 13 13 12 9 7 5 4 3 2 2 2 2 2 4 5 6 6 6 5 4 4 6 8 8 8 7 8 8 8 7 7 8 8 8 8 7 7 6 6 6 7 7 6 6 6 6 6 7 7 6 5 3
4 6 8 9 9 7 6 6 7 6 8 10 9 9 8 7 6 5 4 4 5 8 7 8 12 14 14 15 16 15 14 14 14 14 15 15 13 10 8 7 6 4 4 4 3 4 4 5 7 9 9 7 6 6 5 7 8 9 8 8 8 9 9 8 8 8 9 9 8 8 7 7 7 8 8 7 7 7 7 7 8 7 6 6 4
3 5 7 9 10 9 7 6 7 8 9 9 9 9 9 8 7 6 5 4 5 7 6 7 11 12 13 15 16 16 15 15 15 15 16 16 15 13 11 11 9 8 7 6 6 5 5 6 7 8 10 9 9 8 8 8 8 8 10 10 9 10 10 10 9 8 8 9 9 9 9 8 8 9 9 8 8 9 8 8 8 8 7 7 6
4 4 5 8 9 10 9 7 7 8 9 9 8 9 9 8 8 7 7 6 5 6 6 8 10 9 8 12 14 15 16 16 17 17 17 17 17 17 15 14 13 11 10 9 9 8 7 7 7 8 8 9 10 10 10 10 9 9 9 11 11 11 11 11 11 9 8 8 9 9 9 9 9 10 10 10 10 10 10 10 10 9 9 8 8
3 2 3 6 9 10 10 9 8 9 9 9 8 8 8 7 7 8 8 8 7 5 6 7 7 7 5 4 6 10 14 16 17 17 17 18 18 18 18 17 17 14 13 13 13 12 9 8 8 8 8 8 9 10 11 11 11 11 10 11 12 12 12 12 12 11 10 9 9 10 10 11 11 11 12 12 12 12 12 12 12 12 11 11 10
1 1 1 3 6 10 11 11 10 9 9 8 7 7 6 6 6 8 8 8 7 8 9 9 8 7 5 2 1 3 6 11 15 18 18 17 18 19 20 19 19 17 16 17 17 16 14 12 10 10 9 9 9 10 11 11 11 12 12 12 13 13 13 13 13 13 12 11 10 10 11 12 12 13 13 13 13 13 12 12 13 12 12 13 12
3 1 1 1 3 7 10 11 11 11 10 8 7 6 5 5 5 6 8 7 6 7 10 11 12 9 4 1 1 1 1 4 10 15 16 17 19 20 20 21 22 21 20 20 20 19 18 16 14 12 11 11 10 10 11 12 11 12 13 13 13 14 14 14 14 14 15 14 12 12 12 13 14 14 15 14 14 14 13 13 13 13 13 14 14
2 1 1 1 2 4 7 10 10 11 11 9 7 6 5 5 5 6 7 7 7 7 8 10 12 10 6 3 1 0 2 1 3 6 10 15 18 19 21 22 23 23 23 22 22 22 21 21 19 17 15 13 12 12 12 13 13 12 13 13 14 14 15 15 15 16 16 17 16 15 14 14 15 16 16 16 16 15 16 15 15 15 16 15 15
2 1 2 2 2 3 5 8 8 9 10 10 8 7 6 5 5 6 6 7 8 8 7 8 10 11 10 8 5 3 2 1 0 2 4 9 13 17 19 20 22 23 23 23 23 23 24 23 23 21 20 18 16 16 15 15 15 15 14 14 14 15 15 16 16 17 18 18 19 18 16 16 16 17 18 17 17 18 18 18 18 18 17 17 17
2 1 3 4 4 4 5 7 7 7 7 8 8 8 7 7 5 6 6 7 8 8 9 8 8 10 12 13 13 10 6 2 2 1 2 3 7 11 13 14 17 19 21 21 21 22 23 24 24 24 23 22 21 20 19 18 18 18 18 16 16 16 16 17 17 18 18 19 20 20 19 18 18 18 19 19 19 19 19 20 20 19 19 19 19
4 3 4 4 5 5 5 7 7 6 6 7 7 7 8 8 7 6 6 6 6 7 9 9 9 10 11 13 15 16 13 8 5 3 1 1 3 5 8 10 13 15 16 17 18 19 21 22 23 24 25 25 24 24 23 23 22 22 21 20 19 19 18 18 19 19 20 20 21 22 22 21 20 20 20 20 20 20 20 21 21 20 20 20 20
6 5 5 4 4 5 6 7 7 7 6 6 7 7 8 8 8 7 8 8 7 7 8 9 10 11 12 13 13 14 14 11 9 6 3 3 2 2 5 7 9 11 11 12 14 15 17 19 20 22 24 25 26 26 26 26 26 26 26 25 23 22 21 21 21 21 21 22 22 22 23 23 22 22 21 21 21 21 21 21 21 21 21 21 21
9 7 6 5 4 5 6 7 8 8 8 8 8 8 8 8 8 8 9 9 9 9 9 9 10 11 13 14 13 11 10 9 10 10 6 5 3 3 6 6 6 9 10 10 11 12 13 15 17 20 21 23 24 24 25 26 27 28 28 28 27 26 25 24 23 23 23 23 24 24 24 24 24 24 24 23 23 22 22 23 23 23 22 22 22
11 10 8 7 6 6 6 7 8 8 8 8 8 9 9 8 7 8 8 9 11 11 10 9 9 10 12 13 15 14 12 10 12 12 9 6 4 3 7 9 8 10 10 9 10 10 11 13 15 17 18 19 20 21 22 22 23 25 27 28 29 30 29 28 27 26 26 26 26 26 26 25 25 26 26 26 26 25 24 24 24 24 24 24 23
14 13 11 9 8 7 7 7 8 7 7 6 6 7 9 9 7 7 7 8 10 12 12 11 9 10 10 11 13 16 17 16 16 15 12 10 8 4 6 7 6 8 9 9 10 10 11 13 14 15 16 17 18 19 19 20 21 21 23 25 26 28 30 31 31 30 29 29 28 28 28 28 27 27 27 27 27 27 26 26 25 25 25 25 25
15 15 13 10 9 8 7 6 6 6 6 6 5 6 9 10 9 9 8 7 8 10 12 12 9 9 8 9 10 12 14 15 15 14 11 11 9 6 6 6 4 7 9 9 10 12 12 13 13 13 15 16 17 18 18 19 19 19 21 23 24 25 26 28 30 32 32 32 31 31 31 31 31 30 29 28 28 28 28 28 27 27 27 26 26
15 15 14 12 9 7 6 6 5 5 6 6 7 8 9 11 11 10 9 9 8 8 10 10 10 9 8 8 8 8 9 10 11 11 10 10 9 7 6 5 5 7 7 8 10 11 12 13 13 13 13 14 15 16 17 18 19 20 21 22 22 22 22 22 23 26 29 32 33 34 34 34 34 33 32 31 30 30 29 29 29 29 29 28 28
16 16 15 13 11 9 7 7 6 6 5 6 8 9 10 11 11 11 10 10 9 9 9 10 10 10 10 9 9 9 9 10 11 11 12 11 11 11 8 4 3 4 4 6 9 12 14 15 15 15 15 15 15 14 15 17 19 19 19 19 18 17 16 16 17 18 21 24 28 32 34 36 36 36 35 35 34 33 32 31 31 31 31 31 30
18 18 17 16 14 12 10 9 8 8 7 7 8 9 11 12 12 12 12 12 11 11 10 11 11 11 11 11 12 12 12 12 13 13 13 13 12 12 10 7 4 3 2 3 5 8 13 15 14 14 14 13 12 11 12 15 16 16 15 14 13 14 15 17 19 19 19 20 22 25 30 33 36 37 37 37 37 36 34 34 33 33 33 33 33
19 20 19 19 18 16 13 12 11 10 10 10 10 10 11 12 12 12 12 13 13 13 13 13 12 12 12 12 12 13 14 14 15 14 14 14 14 13 13 11 9 5 2 3 4 5 9 11 11 11 11 10 10 11 12 13 13 14 15 14 15 20 23 24 23 21 20 19 20 21 24 27 31 34 36 37 37 36 36 35 35 34 34 34 34
18 19 19 19 19 18 17 15 14 13 13 13 13 13 13 12 12 12 11 11 12 13 13 14 14 13 13 13 14 16 16 16 17 16 16 16 15 15 15 14 13 10 6 4 6 8 10 11 13 13 13 14 14 15 16 17 17 18 19 21 23 25 25 23 21 19 19 19 19 20 21 23 26 30 34 36 36 36 36 36 36 36 35 35 35
16 16 16 16 16 17 18 18 17 16 15 15 15 16 16 16 14 13 12 11 12 12 12 12 13 14 15 16 17 18 18 18 18 18 18 18 17 17 17 16 16 16 14 9 5 9 12 14 17 18 19 21 21 21 21 21 20 21 21 22 23 21 20 19 18 17 18 18 18 19 20 21 23 25 29 33 35 36 35 35 36 36 36 36 36
14 13 13 14 14 14 15 17 18 18 18 17 17 17 18 19 18 16 15 13 13 13 12 12 12 13 15 16 17 18 17 17 16 16 17 18 18 18 18 18 18 18 18 14 7 11 20 23 24 24 23 23 22 21 20 19 18 17 18 18 17 17 17 17 17 16 17 17 18 18 19 20 21 22 24 27 31 34 35 36 36 36 37 37 37
10 11 12 11 11 12 14 15 16 17 18 18 18 18 19 19 20 20 19 17 17 16 15 14 14 14 15 15 16 16 15 16 16 15 16 17 17 18 17 17 18 18 19 18 12 12 21 25 25 24 23 21 21 21 20 20 19 17 18 18 18 18 19 19 19 18 18 18 19 19 19 20 20 20 21 22 24 27 30 33 36 37 39 39 39
8 8 10 11 12 14 14 14 15 15 16 17 18 19 20 20 20 19 19 20 20 20 20 19 18 17 18 19 19 18 17 18 18 17 16 16 17 17 17 16 18 18 18 19 17 13 17 24 25 24 24 22 22 24 23 23 24 23 22 23 22 22 22 21 21 20 20 21 21 22 22 22 22 22 21 21 22 23 24 26 29 32 36 38 40
9 8 9 10 11 12 12 13 14 15 16 16 17 18 20 21 21 19 19 20 20 19 21 22 22 21 21 22 23 22 21 21 22 21 20 19 19 20 20 19 19 21 19 19 19 17 18 22 23 23 25 25 25 27 26 26 26 26 26 26 26 26 25 24 23 22 21 21 21 22 23 24 24 24 24 24 23 23 23 24 25 27 29 32 35
7 8 9 9 9 11 11 11 12 14 15 15 14 15 16 18 18 17 18 20 20 21 23 24 24 25 24 25 25 24 23 23 24 25 24 23 22 21 22 21 21 22 20 18 20 21 20 20 21 22 24 25 28 29 28 27 27 27 27 26 26 26 26 25 25 25 23 23 23 23 23 24 24 25 25 25 25 25 25 25 25 26 26 27 28
2 4 6 7 7 8 9 9 9 10 11 11 10 10 11 12 12 12 14 16 18 20 22 23 23 25 26 26 27 26 24 23 24 25 25 25 23 21 22 25 24 22 20 19 21 22 21 21 23 24 23 22 25 27 27 26 26 26 26 26 26 26 27 26 26 25 24 24 24 24 24 23 23 24 25 25 26 26 26 26 26 26 26 27 27
1 2 3 4 5 5 6 7 8 9 8 7 7 8 9 9 10 10 11 12 13 14 16 18 18 20 22 23 24 24 22 22 22 23 23 23 22 21 24 27 25 21 21 22 21 19 20 22 24 25 24 22 22 24 26 24 23 25 27 28 29 28 28 27 26 26 25 24 24 24 24 24 24 24 25 25 25 25 26 26 27 26 26 27 28
2 2 2 3 4 3 3 3 5 6 6 7 8 9 10 11 11 12 12 13 13 13 14 14 13 14 17 18 18 18 17 18 20 21 21 21 21 22 24 24 23 21 21 23 21 18 18 21 22 23 23 22 20 23 26 23 21 23 25 27 29 29 28 27 27 27 27 26 26 27 26 26 25 26 26 26 25 25 25 25 25 25 24 25 25
2 2 2 3 4 4 3 2 1 3 5 6 7 8 9 9 9 10 11 11 12 12 12 12 11 11 12 13 12 11 11 12 13 14 15 17 18 19 19 19 19 20 20 20 20 18 18 19 21 22 22 21 21 23 25 23 20 20 21 21 23 27 30 29 28 28 29 29 28 28 28 27 26 26 25 24 23 23 23 23 23 22 21 21 22
5 5 5 5 5 4 4 3 2 2 3 4 5 6 6 7 7 8 9 9 10 10 10 10 10 10 10 10 9 9 9 10 10 11 12 13 14 16 16 15 16 18 19 18 18 18 17 17 19 20 18 18 20 21 20 20 20 21 21 20 21 25 29 31 31 29 28 28 29 28 27 24 22 21 20 19 18 19 20 21 21 21 21 21 22
8 8 7 6 5 4 3 3 2 0 2 2 4 5 7 8 8 8 8 8 8 8 8 8 9 9 8 8 8 8 9 10 11 12 13 13 13 13 13 12 13 15 16 16 16 16 15 14 16 17 14 15 19 19 18 20 23 23 22 20 21 23 23 24 26 26 22 21 23 26 24 20 17 17 17 17 17 18 19 20 21 22 23 23 23
9 8 7 7 7 6 5 4 3 3 3 4 5 6 7 8 9 9 8 7 7 7 7 7 7 7 7 8 8 8 8 8 9 10 10 10 10 11 11 10 10 10 11 12 13 14 12 12 13 14 14 15 18 19 18 18 18 18 19 18 19 20 17 14 16 17 16 14 15 18 18 15 14 14 15 16 16 16 18 18 19 19 19 19 19
9 8 8 9 9 8 7 7 6 6 5 6 6 6 7 7 8 8 7 6 7 6 5 5 5 5 5 6 7 7 8 8 9 9 9 9 9 9 10 10 9 9 8 8 9 10 10 10 11 12 13 13 14 15 15 14 14 15 17 17 17 18 17 14 13 13 13 13 14 14 12 9 10 11 10 9 10 10 11 12 11 11 11 11 12
10 10 10 10 10 10 9 9 9 9 9 9 8 8 8 8 8 7 6 4 4 3 3 3 3 3 4 5 5 7 8 8 9 9 10 10 10 10 10 9 7 7 6 6 6 6 6 7 7 8 9 10 10 11 12 13 14 14 13 13 14 14 14 15 15 14 12 12 13 12 8 5 5 4 3 3 4 5 6 6 6 6 6 5 5
12 12 12 12 13 13 12 11 11 11 12 13 12 11 10 8 8 7 7 5 4 3 4 4 5 6 7 7 7 7 7 7 7 7 8 8 8 8 6 4 3 3 3 3 4 4 5 5 5 5 6 7 8 9 10 11 12 12 11 12 12 11 12 12 11 9 8 8 8 5 4 6 5 3 4 5 5 5 5 5 5 5 5 5 5
14 14 15 16 16 15 15 14 13 14 15 15 15 14 13 10 8 8 7 5 4 4 5 5 5 5 5 5 5 5 6 7 8 8 8 8 7 6 5 5 4 4 3 3 4 5 6 6 6 5 6 6 7 8 9 10 10 10 9 8 8 9 9 6 4 4 7 9 7 2 3 6 5 4 5 6 4 5 5 5 5 5 5 5 4
15 16 16 16 16 16 16 16 16 15 15 15 15 16 14 11 8 6 5 4 5 5 4 4 4 4 5 6 6 7 8 9 9 9 9 8 7 6 6 6 5 4 4 4 5 6 6 6 5 5 4 5 6 7 8 9 9 9 6 3 3 5 5 4 4 6 9 10 8 5 5 6 6 5 6 6 5 5 6 5 5 5 4 4 3
14 14 14 14 14 15 15 16 16 15 14 14 14 14 15 13 10 8 7 6 5 5 4 4 5 7 8 8 8 9 10 11 12 11 10 10 9 7 7 6 4 3 4 4 5 6 6 6 6 6 6 6 7 7 8 9 10 10 8 8 8 8 6 5 4 7 10 11 9 6 5 6 6 5 6 7 8 8 8 7 6 5 5 4 3
12 11 11 11 12 12 13 14 14 14 13 13 12 12 12 12 11 10 9 8 7 6 7 7 8 8 9 9 10 11 11 12 13 13 13 12 11 9 7 6 6 6 6 5 5 5 6 6 7 7 8 8 9 9 10 11 11 12 12 12 12 10 7 5 3 3 7 11 11 7 4 5 7 5 4 5 7 9 10 9 7 7 7 7 7
8 8 7 8 8 9 9 10 10 10 11 11 11 11 10 9 9 9 8 7 8 8 8 8 8 9 10 10 11 11 12 12 13 12 12 12 11 10 9 8 8 8 7 7 7 6 6 6 6 7 8 9 9 9 10 10 10 11 12 11 11 11 10 8 5 2 2 6 10 8 4 4 6 5 3 2 3 6 9 9 7 8 9 9 9
Wind_Direction
150 151 163 167 173 175 173 180 167 164 172 175 174 168 166 172 171 166 170 336 327 318 294 243 219 208 187 159 145 140 123 104 94 87 89 93 94 84 59 86 111 118 119 119 118 119 118 118 117 115 113 112 112 112 110 108 107 107 109 110 110 112 111 111 111 112 114 114 114 114 112 113 113 113 112 110 109 109 109 109 109 107 105 104 103
165 173 181 179 181 184 180 181 183 179 180 182 183 180 181 189 195 196 202 306 316 306 282 241 219 212 203 184 169 163 146 119 99 83 73 75 88 92 62 73 108 119 120 123 126 128 128 126 126 127 126 123 122 120 119 118 118 117 119 119 117 117 117 117 118 118 119 119 120 119 119 119 119 118 117 115 114 113 111 110 108 106 106 105 103
177 192 199 200 189 188 187 182 186 190 191 192 193 195 196 203 215 222 234 301 309 300 271 236 219 216 211 198 187 183 174 149 115 91 66 57 70 85 76 64 88 114 128 134 133 132 134 134 133 134 134 133 132 131 129 128 126 127 127 126 126 127 126 124 123 124 125 125 125 126 126 124 122 121 120 119 117 114 112 110 108 107 107 107 105
184 202 216 224 214 206 199 189 189 193 199 203 205 209 211 217 228 245 268 295 297 291 258 229 219 219 215 207 201 199 195 179 151 109 73 52 50 55 64 57 60 97 129 137 138 140 140 139 139 139 138 139 140 140 139 138 136 136 135 135 135 134 131 129 129 128 128 130 131 131 129 126 125 126 126 125 123 121 120 117 115 113 112 113 112
189 203 221 233 226 217 212 200 195 198 204 209 213 216 219 226 235 255 269 269 273 259 233 222 221 223 221 217 211 210 212 201 192 171 106 58 42 39 34 27 36 77 121 134 142 147 146 145 145 144 144 144 146 146 144 144 144 142 142 142 142 140 136 135 136 134 132 132 134 134 133 133 135 135 134 131 129 128 128 124 122 121 121 121 121
202 202 215 230 227 218 217 205 194 198 205 210 213 216 220 227 231 251 256 219 237 237 224 217 217 223 224 224 221 219 226 218 213 212 185 103 41 35 32 19 12 29 124 146 149 147 145 151 153 152 152 153 153 154 154 151 149 150 150 149 147 143 139 139 142 141 140 141 141 140 140 143 144 143 141 139 138 136 135 134 132 133 134 132 129
207 201 203 213 219 214 212 200 191 195 199 204 207 210 215 220 221 240 246 205 224 229 222 218 216 222 224 225 225 226 235 232 226 224 216 204 209 17 36 28 13 5 3 161 171 177 173 169 164 157 158 162 162 160 160 158 158 161 160 157 153 147 145 148 149 149 153 154 150 150 153 157 156 153 151 149 147 145 145 148 147 144 142 137 131
200 199 194 189 192 196 199 194 192 197 200 200 199 203 207 212 219 239 238 208 223 224 218 218 219 223 226 227 228 230 239 240 235 232 226 223 226 246 273 30 23 355 327 290 194 192 194 208 210 199 177 173 171 168 167 166 169 175 169 163 162 159 161 161 160 164 170 169 167 170 177 178 171 165 163 163 161 158 157 162 164 148 134 127 120
189 194 191 180 173 176 188 191 191 198 203 201 195 198 203 209 221 243 244 216 217 217 214 216 219 224 227 228 228 232 241 243 242 239 235 233 233 240 245 248 265 286 291 290 275 220 200 207 229 255 262 223 190 180 181 181 184 188 178 171 175 175 176 176 175 179 185 186 189 193 197 192 181 175 176 177 177 175 175 175 169 152 140 134 125
191 191 189 181 173 169 178 190 196 195 199 200 197 199 203 210 221 239 244 221 210 209 209 212 217 223 226 228 229 232 242 246 245 245 242 240 239 244 249 247 249 252 263 259 250 244 220 208 211 231 256 265 245 211 194 194 196 196 189 182 184 187 192 193 191 191 195 200 204 206 204 197 188 186 189 193 192 193 195 188 176 169 169 175 182
206 200 197 190 185 181 176 185 196 190 187 194 199 203 207 213 220 229 230 215 203 196 197 208 212 218 224 227 229 233 240 245 247 248 249 248 246 247 250 252 256 255 258 256 244 240 235 225 214 220 236 244 248 247 225 211 207 200 197 199 197 196 201 208 210 206 205 209 211 209 208 204 199 199 201 204 202 200 205 202 193 190 193 204 228
239 214 205 200 194 193 188 183 191 191 184 188 197 204 210 218 225 232 224 205 187 175 179 207 208 212 224 228 231 236 241 246 250 251 252 253 250 249 252 255 257 261 265 259 251 246 241 244 236 231 237 238 237 242 242 234 226 213 204 206 209 209 209 212 220 221 217 218 219 217 218 215 211 211 209 211 209 204 208 212 209 207 210 218 230
263 238 210 207 200 195 196 188 187 189 186 186 190 197 204 216 229 234 226 212 196 164 159 193 197 192 217 234 236 239 244 249 252 253 255 255 253 251 253 256 258 263 268 263 258 255 250 253 255 253 253 251 242 236 240 241 239 235 221 213 215 217 217 215 220 229 230 226 226 227 228 224 221 219 217 217 216 212 212 217 219 222 228 233 240
270 257 214 213 207 198 196 193 186 182 182 180 181 189 197 210 221 222 221 212 206 189 161 175 191 180 176 217 245 246 248 250 252 253 254 255 254 252 253 256 260 264 267 267 264 260 258 259 261 264 265 266 261 247 243 242 241 244 239 229 225 223 223 220 220 229 235 234 233 235 235 232 228 224 222 221 221 221 221 222 226 231 237 240 244
187 139 172 204 210 204 196 193 191 182 178 178 177 185 193 207 213 212 215 205 201 208 195 195 207 188 158 162 238 251 257 255 252 250 250 252 252 251 252 256 260 263 263 265 266 263 261 260 261 265 268 271 272 262 255 250 246 246 246 243 237 231 229 228 226 228 235 240 238 238 240 238 233 229 226 224 225 226 227 229 230 234 239 242 246
175 146 144 160 206 207 198 193 193 189 186 182 182 188 193 204 210 208 215 211 208 210 204 210 213 194 162 160 150 127 281 265 254 252 250 248 249 249 251 256 260 262 262 263 266 267 264 261 260 262 265 268 270 267 263 260 256 251 248 247 246 241 236 233 233 231 235 243 245 241 241 241 238 234 231 229 229 230 232 234 236 240 242 244 248
189 214 251 232 206 209 207 199 194 194 196 195 197 204 206 212 218 219 225 230 235 230 218 221 222 215 202 177 123 203 258 268 273 269 257 249 250 250 251 255 260 263 265 265 267 268 268 264 262 261 261 263 266 267 264 261 261 258 254 250 247 247 245 241 238 236 235 241 247 246 242 242 242 239 237 236 237 238 240 241 242 244 246 247 251
197 264 274 255 219 203 209 205 199 196 200 206 216 225 228 231 234 234 240 247 249 247 240 237 236 237 232 226 229 237 226 182 175 311 283 259 253 252 253 257 261 265 268 269 268 269 269 268 267 264 262 261 262 264 264 261 259 258 259 257 252 250 250 248 244 240 238 238 245 250 249 245 243 242 242 243 244 246 248 249 248 247 247 248 251
196 253 269 265 242 215 203 202 204 205 205 212 223 234 238 240 243 242 246 251 252 250 252 257 256 253 251 248 248 252 255 233 203 271 315 283 261 256 258 259 262 266 268 270 271 270 270 270 270 268 266 263 262 262 264 263 260 258 258 257 257 254 252 252 248 244 241 238 241 248 253 253 250 248 246 247 249 251 253 254 254 252 251 251 251
212 242 254 259 253 236 217 208 210 218 224 223 225 234 238 239 242 242 246 251 256 260 263 269 271 270 269 263 258 257 256 251 246 248 225 279 286 270 264 264 264 266 269 271 272 272 272 272 272 272 271 268 266 265 265 265 263 261 259 257 256 256 255 254 252 249 246 243 241 244 249 254 255 254 251 250 251 254 256 257 257 257 256 256 255
226 239 241 244 251 247 237 230 228 233 243 244 237 234 236 239 244 248 251 252 256 266 274 277 277 279 277 271 267 261 254 254 257 253 228 234 267 272 264 267 269 269 273 277 279 279 277 276 275 274 275 274 272 270 269 268 266 264 262 260 257 256 256 256 255 254 251 249 247 245 246 248 250 252 251 251 251 253 255 258 259 260 259 259 259
231 238 244 244 246 251 249 244 243 248 258 260 248 238 236 242 252 259 260 259 259 265 274 281 284 286 278 267 262 258 250 247 249 245 234 228 241 264 258 252 261 273 279 282 284 286 282 279 279 277 277 278 278 277 274 272 270 268 267 264 260 258 257 257 257 257 256 255 253 251 250 249 248 249 250 251 252 253 252 256 260 260 261 262 262
232 235 243 250 249 252 256 255 250 251 262 265 254 241 238 245 257 264 265 263 262 264 269 277 286 290 285 269 257 254 252 249 249 246 232 220 226 260 259 250 249 262 275 281 276 273 273 273 274 277 279 279 280 281 280 279 276 274 273 269 265 261 259 258 258 259 259 259 258 257 255 254 252 251 251 251 253 254 254 257 258 258 260 263 264
235 236 240 247 247 246 253 262 259 255 258 263 255 241 238 244 256 265 269 267 263 262 263 269 279 286 291 281 266 261 260 261 263 258 248 243 238 240 262 262 254 260 274 282 274 267 266 267 269 271 273 276 279 281 282 283 282 280 279 275 271 266 262 260 259 260 261 261 262 261 261 259 258 256 255 253 253 256 257 259 260 259 259 261 263
238 237 238 240 242 242 245 261 270 263 255 250 247 245 242 246 257 266 271 275 267 257 255 257 266 274 284 290 281 271 268 269 269 266 262 254 242 237 259 262 255 268 279 281 278 278 274 270 270 269 268 270 275 279 282 285 286 286 284 281 279 275 270 265 262 261 261 262 263 263 263 263 262 261 260 258 257 257 257 259 261 261 261 262 262
244 243 241 237 237 237 234 244 262 266 262 255 248 248 249 251 258 265 269 273 272 261 250 247 252 260 266 275 282 278 276 274 267 263 262 253 239 237 250 258 257 265 275 275 273 274 274 273 272 269 268 269 272 278 283 286 288 289 289 287 285 281 278 275 270 267 265 264 264 264 264 264 264 264 263 262 261 260 260 260 260 261 262 263 263
254 254 249 240 236 233 229 235 246 250 254 257 253 251 253 257 260 264 265 265 268 264 255 249 250 255 257 258 261 262 262 263 262 262 262 259 256 254 249 246 265 269 271 272 268 266 269 274 276 272 271 273 276 279 284 287 289 291 292 291 288 285 285 286 284 281 277 273 269 266 265 265 265 265 265 265 264 264 262 261 260 261 262 263 263
262 261 257 249 243 238 235 238 243 246 247 246 250 252 254 258 262 266 266 264 262 260 256 252 251 253 255 256 256 257 258 259 260 262 262 262 264 263 254 240 245 274 290 275 268 268 272 275 277 277 275 275 277 279 283 287 291 293 291 289 292 295 299 300 297 294 291 286 280 272 267 265 264 265 265 266 267 266 264 262 261 261 261 262 263
266 265 262 256 252 247 245 245 245 249 252 249 248 250 253 256 259 263 267 267 266 262 255 250 249 249 251 255 259 261 262 261 261 262 264 264 263 262 261 255 247 243 262 283 261 253 266 269 268 273 275 272 272 274 277 280 283 286 285 285 292 297 299 300 298 294 292 290 287 280 272 266 262 263 264 265 265 264 264 263 263 263 263 263 262
268 267 266 261 257 254 253 254 254 253 254 255 253 250 251 253 253 254 259 265 269 268 262 254 249 248 250 255 260 263 263 262 263 264 262 262 261 259 261 260 253 240 229 256 269 256 259 264 263 266 273 275 276 277 277 277 278 279 280 283 288 290 292 292 289 286 287 288 287 285 279 271 264 261 261 261 262 263 265 265 265 264 264 263 262
269 268 269 266 262 259 257 258 259 259 259 259 259 254 250 250 250 251 255 260 268 273 274 267 257 252 254 258 263 266 268 267 265 264 261 260 260 260 260 258 255 250 241 239 264 268 265 270 271 273 278 282 282 282 281 282 283 281 281 282 285 287 287 285 281 280 281 283 285 285 284 281 274 268 263 260 259 261 263 265 265 265 264 263 262
268 268 270 271 272 272 271 267 264 263 263 264 264 262 256 251 249 251 254 258 264 271 276 277 271 263 262 264 267 270 274 274 271 267 262 260 261 262 262 259 257 256 249 239 243 270 273 278 282 283 286 288 287 286 288 292 294 290 287 287 288 289 289 288 288 286 284 284 285 286 287 286 283 278 273 266 262 260 259 260 262 263 264 264 264
267 268 267 269 273 274 276 282 281 274 270 268 267 265 261 256 252 252 255 258 261 266 270 272 273 271 269 269 269 270 275 279 280 277 270 266 265 263 262 260 257 256 251 241 238 264 276 280 285 289 292 293 293 294 298 301 303 303 300 297 296 294 293 292 291 288 286 286 286 287 287 286 285 283 280 276 271 267 263 261 261 261 262 264 264
266 270 270 270 274 272 268 276 285 284 280 277 273 267 263 260 256 254 257 261 263 265 268 270 273 275 274 271 269 269 273 276 277 277 273 271 271 270 268 265 263 263 256 246 241 250 271 278 283 290 293 292 293 296 299 301 302 303 301 300 300 298 297 295 292 287 283 282 282 282 282 282 282 281 280 279 277 275 273 270 267 265 263 262 262
267 271 275 277 281 279 269 268 275 278 278 279 279 274 267 264 261 256 256 261 267 272 273 273 275 279 278 276 274 273 274 275 275 274 271 269 270 271 272 271 272 272 266 256 250 249 262 275 280 285 290 291 291 293 295 296 297 297 296 297 298 297 297 296 295 292 286 284 284 283 282 280 279 278 278 278 278 277 276 274 273 272 268 265 262
272 272 278 282 285 281 273 273 278 279 276 275 279 282 278 276 273 267 262 262 267 273 274 273 275 278 279 278 277 278 279 280 279 277 275 272 270 271 273 275 275 276 275 270 264 258 259 270 278 280 283 286 289 292 293 294 295 295 295 296 296 296 295 294 293 292 289 289 288 286 285 284 282 280 278 277 277 277 277 276 275 273 271 270 268
284 285 291 297 295 283 275 279 286 289 286 279 279 281 280 281 283 280 274 270 271 273 273 274 275 277 277 274 273 275 279 281 282 281 279 275 273 276 281 281 277 276 280 280 272 265 261 265 276 282 283 282 285 291 294 295 297 298 298 297 297 297 297 295 292 290 289 289 289 288 288 288 286 285 283 280 279 278 278 277 276 273 271 271 270
1 334 329 323 311 293 281 281 286 293 294 284 274 269 267 272 278 280 280 278 279 279 278 279 280 280 278 276 275 276 279 281 281 281 280 276 274 278 282 284 281 277 278 280 275 267 261 261 269 278 283 284 286 293 297 295 294 296 299 300 301 300 299 297 295 294 293 292 291 291 290 289 288 287 286 284 282 280 279 278 277 275 272 271 271
10 9 356 345 336 323 295 273 276 282 281 273 267 265 267 274 278 279 277 274 275 279 282 285 288 288 285 281 280 280 280 282 282 281 280 278 278 280 281 285 286 281 276 277 275 268 260 259 263 270 277 282 285 291 295 293 288 289 293 295 298 301 301 298 297 298 298 296 294 294 293 291 289 287 286 285 284 283 282 281 280 278 275 275 276
44 38 22 14 6 0 4 12 338 291 271 265 266 272 279 285 286 284 279 276 279 281 284 288 292 295 295 293 292 287 281 279 280 280 279 277 279 283 285 288 289 284 278 275 272 268 263 262 265 270 275 279 281 284 289 289 284 284 290 290 288 294 299 298 298 299 299 297 296 296 295 293 290 288 286 286 286 286 286 285 283 282 280 279 279
57 45 35 29 17 5 2 5 359 306 271 269 278 287 293 293 288 284 279 279 284 286 289 293 296 300 301 299 296 290 283 278 274 272 272 274 278 283 287 290 287 281 278 274 271 270 267 262 264 271 275 277 280 281 283 285 283 285 292 288 278 282 290 293 294 296 297 298 298 296 296 295 292 292 291 289 287 286 285 286 286 286 285 283 280
57 53 54 59 62 60 49 52 64 11 293 305 314 307 301 295 289 284 282 283 288 295 302 305 303 304 305 302 296 290 286 283 279 276 275 277 281 285 290 292 284 278 275 275 275 273 266 260 264 272 275 276 281 283 282 286 288 289 290 285 278 280 285 287 293 298 300 298 292 290 293 294 291 289 290 289 287 283 281 283 284 287 289 288 285
68 69 73 74 70 61 49 44 36 14 351 336 324 313 305 301 299 296 291 293 305 315 317 318 318 319 322 323 317 309 303 296 289 286 285 283 282 282 286 289 287 284 280 277 276 273 267 263 267 271 272 275 284 289 290 293 295 294 292 290 287 288 287 285 291 300 304 297 285 284 289 290 284 283 285 286 286 284 285 287 287 289 290 290 289
75 74 73 70 65 57 49 42 33 25 16 360 345 336 328 324 321 314 309 318 329 336 339 335 330 325 318 314 310 307 308 307 303 301 301 299 296 289 289 292 293 294 293 287 282 281 280 279 278 280 284 288 294 300 304 307 307 302 301 299 295 293 291 287 285 294 302 299 294 296 300 297 288 285 287 291 297 301 302 304 303 302 300 296 293
82 82 81 78 72 64 54 46 38 32 26 15 4 357 351 349 346 342 351 4 1 9 13 344 331 338 337 329 323 320 319 318 317 316 313 311 308 305 303 301 298 295 299 304 304 304 306 303 299 300 303 305 307 308 313 317 318 318 315 311 308 306 302 298 299 303 308 307 302 300 312 338 326 304 313 339 343 344 340 340 341 339 339 336 329
90 89 86 79 72 63 54 47 41 35 31 24 16 11 6 4 6 18 39 56 58 45 23 5 6 2 350 341 338 338 340 342 343 341 340 336 330 327 328 331 336 330 328 339 342 346 350 350 347 337 324 322 321 320 325 329 329 328 323 319 319 319 313 311 312 316 329 338 330 310 339 22 32 57 64 50 29 13 5 358 353 352 358 4 5
86 84 80 74 69 62 56 50 45 41 38 33 28 24 22 23 32 47 62 73 63 43 26 19 16 3 356 4 13 18 20 18 14 11 6 1 359 11 41 57 49 41 44 36 13 358 353 353 352 344 336 339 343 344 347 349 347 340 327 317 313 311 316 329 347 11 16 11 12 36 52 37 49 74 62 48 33 20 11 357 350 346 345 345 347
81 79 74 69 62 57 53 48 46 45 42 37 35 34 32 35 48 65 73 69 59 53 45 33 35 46 54 56 52 48 44 35 28 24 22 24 30 46 65 71 60 46 43 34 15 0 358 3 10 14 17 18 17 16 14 11 8 2 350 341 344 343 354 17 29 31 29 23 31 69 81 49 49 72 71 63 57 45 29 12 357 349 345 339 330
78 74 69 64 57 52 49 47 45 44 43 40 39 39 38 40 51 68 81 82 77 74 71 67 72 76 72 66 60 57 52 47 42 39 41 48 52 55 65 80 83 63 44 30 17 13 23 40 53 58 60 57 51 44 36 32 29 28 36 46 40 32 36 43 39 38 38 34 38 61 68 41 39 73 84 70 64 59 49 39 25 17 23 37 47
75 72 67 62 57 51 47 46 44 42 43 42 40 41 44 45 51 64 77 87 92 90 86 81 78 75 72 68 63 59 54 49 46 44 46 50 53 54 60 73 76 66 55 46 42 43 52 63 68 70 71 68 62 53 44 40 38 38 44 49 46 46 55 58 45 38 38 36 37 47 57 37 37 68 90 67 60 61 56 51 54 56 61 69 76
68 67 62 53 50 49 45 45 45 44 46 48 47 47 50 50 54 63 75 91 97 93 89 85 79 74 71 67 61 56 52 48 44 42 41 43 46 47 50 55 57 56 55 55 57 60 65 72 74 73 71 63 51 42 37 37 37 38 43 49 48 49 55 54 46 41 32 28 29 34 49 43 34 47 74 69 54 51 47 52 69 77 76 80 82